Location: Krakow
(50.0212°N, 19.9423°E)
Time: 00:21:37
(UTC+02:00)

NOAA 18 - Pass Details

Date: 22 August 2024
Orbit: 837 x 859 km, 98.9° (Epoch: 19 September)

Event Time Altitude Azimuth Distance (km) Brightness Sun altitude
Exits shadow 23:48:25 26° 249° (WSW) 1,619 6.6 -27.5°
Maximum altitude 23:49:23 28° 267° (W) 1,570 6.6 -27.5°
Drops below altitude 10° 23:54:06 10° 325° (NW) 2,505 8.5 -27.7°
Sets 23:56:51 0° 337° (NNW) 3,445 9.6 -27.8°
